FW8749 Weather Reports


Display with metric or nautical units.
time (UTC)temp
F
wind
direction
speed
MPH
gust
MPH
rain 1hr
in
rain 24hr
in
rain mn
in
humidity
%
barometer
mb
20260505010015 0 215 0.0 0.0 0.00 0.00 0.00 1008.8
20260505005512 0 220 0.0 0.0 0.00 0.00 0.00 1008.9
20260505005009 0 229 0.0 0.0 0.00 0.00 0.00 1008.4
20260505004506 0 200 0.0 0.0 0.00 0.00 0.00 1008.6
20260505004003 0 204 0.0 0.0 0.00 0.00 0.00 1008.5
20260505003500 0 215 0.0 0.0 0.00 0.00 0.00 1008.6
20260505002956 0 210 0.0 0.0 0.00 0.00 0.00 1008.7
20260505002452 0 238 0.0 0.0 0.00 0.00 0.00 1008.5
20260505001951 0 225 0.0 0.0 0.00 0.00 0.00 1008.7
20260505001448 0 221 0.0 0.0 0.00 0.00 0.00 1008.4
20260505000945 0 226 0.0 1.0 0.00 0.00 0.00 1008.6
20260505000443 0 205 1.0 2.0 0.00 0.00 0.00 1008.8
20260504235940 0 230 0.0 0.0 0.00 0.00 0.00 1008.6
20260504235437 0 211 1.0 2.0 0.00 0.00 0.00 1008.5
20260504234933 0 209 0.0 0.0 0.00 0.00 0.00 1008.7
20260504234431 0 209 1.0 1.0 0.00 0.00 0.00 1008.7
20260504233927 0 210 1.0 2.0 0.00 0.00 0.00 1008.4
20260504233423 0 211 1.0 1.0 0.00 0.00 0.00 1008.4
20260504232920 0 189 0.0 0.0 0.00 0.00 0.00 1008.6
20260504232417 0 205 2.0 3.0 0.00 0.00 0.00 1008.4
20260504231914 0 208 1.0 1.0 0.00 0.00 0.00 1008.6
20260504231410 0 185 1.0 3.0 0.00 0.00 0.00 1008.5
20260504230907 0 196 3.0 5.0 0.00 0.00 0.00 1008.6
20260504230404 0 205 2.0 2.0 0.00 0.00 0.00 1008.4
20260504225903 0 156 1.0 1.0 0.00 0.00 0.00 1008.4
20260504225359 0 224 0.0 0.0 0.00 0.00 0.00 1008.6
20260504224856 0 219 1.0 1.0 0.00 0.00 0.00 1008.4
20260504224353 0 204 1.0 2.0 0.00 0.00 0.00 1008.6
20260504223850 0 211 1.0 2.0 0.00 0.00 0.00 1008.3
20260504223345 0 221 1.0 2.0 0.00 0.00 0.00 1008.4
20260504222842 0 190 2.0 2.0 0.00 0.00 0.00 1008.3
20260504222338 0 235 2.0 3.0 0.00 0.00 0.00 1008.3
20260504221837 0 176 1.0 2.0 0.00 0.00 0.00 1008.3
20260504221333 0 219 0.0 0.0 0.00 0.00 0.00 1008.3
20260504220831 0 226 2.0 2.0 0.00 0.00 0.00 1008.4
20260504220327 0 213 2.0 3.0 0.00 0.00 0.00 1008.4
20260504215825 0 167 3.0 5.0 0.00 0.00 0.00 1008.5
20260504215321 0 210 2.0 3.0 0.00 0.00 0.00 1008.1
20260504214817 0 201 1.0 2.0 0.00 0.00 0.00 1008.2
20260504214314 0 240 0.0 1.0 0.00 0.00 0.00 1008.6
20260504213810 0 200 3.0 3.0 0.00 0.00 0.00 1008.3
20260504213307 0 226 0.0 1.0 0.00 0.00 0.00 1008.4
20260504212804 0 269 2.0 5.0 0.00 0.00 0.00 1008.5
20260504212300 0 228 1.0 1.0 0.00 0.00 0.00 1008.3
20260504211758 0 234 1.0 2.0 0.00 0.00 0.00 1008.4
20260504211254 0 210 1.0 2.0 0.00 0.00 0.00 1008.4
20260504210752 0 182 1.0 2.0 0.00 0.00 0.00 1008.5
20260504210249 0 195 0.0 1.0 0.00 0.00 0.00 1008.3
20260504205745 0 85 1.0 2.0 0.00 0.00 0.00 1008.6
20260504205243 0 223 0.0 0.0 0.00 0.00 0.00 1008.5
20260504204741 0 312 0.0 1.0 0.00 0.00 0.00 1008.8
20260504204239 0 268 1.0 1.0 0.00 0.00 0.00 1008.5
20260504203738 0 186 2.0 5.0 0.00 0.00 0.00 1008.5
20260504203235 0 196 4.0 6.0 0.00 0.00 0.00 1009.0
20260504202735 0 214 2.0 2.0 0.00 0.00 0.00 1009.0
20260504202233 0 227 0.0 0.0 0.00 0.00 0.00 1009.1
20260504201730 0 254 3.0 3.0 0.00 0.00 0.00 1009.2
20260504201227 0 260 1.0 1.0 0.00 0.00 0.00 1009.0
20260504200725 0 207 2.0 2.0 0.00 0.00 0.00 1009.3
20260504200220 0 219 1.0 1.0 0.00 0.00 0.00 1009.2
20260504195717 0 189 4.0 5.0 0.00 0.00 0.00 1009.2
20260504195213 0 182 1.0 2.0 0.00 0.00 0.00 1009.3
20260504194710 0 200 3.0 5.0 0.00 0.00 0.00 1009.4
20260504194206 0 194 3.0 5.0 0.00 0.00 0.00 1009.5
20260504193702 0 209 1.0 2.0 0.00 0.00 0.00 1009.6
20260504193200 0 47 0.0 1.0 0.00 0.00 0.00 1009.6
20260504192658 0 243 2.0 2.0 0.00 0.00 0.00 1009.7
20260504192156 0 138 2.0 3.0 0.00 0.00 0.00 1009.7
20260504191654 0 281 1.0 2.0 0.00 0.00 0.00 1009.8
20260504191150 0 220 3.0 3.0 0.00 0.00 0.00 1009.9
20260504190646 0 38 3.0 5.0 0.00 0.00 0.00 1010.0
20260504190143 0 213 2.0 2.0 0.00 0.00 0.00 1010.1
20260504185639 0 216 1.0 2.0 0.00 0.00 0.00 1010.0
20260504185136 0 252 1.0 2.0 0.00 0.00 0.00 1010.1
20260504184632 0 248 1.0 2.0 0.00 0.00 0.00 1010.2
20260504184127 0 252 2.0 3.0 0.00 0.00 0.00 1010.6
20260504183625 0 204 4.0 5.0 0.00 0.00 0.00 1010.3
20260504183122 0 242 1.0 1.0 0.00 0.00 0.00 1010.6
20260504182620 0 216 1.0 1.0 0.00 0.00 0.00 1010.5
20260504182117 0 165 5.0 6.0 0.00 0.00 0.00 1010.6
20260504181614 0 198 3.0 5.0 0.00 0.00 0.00 1010.7
20260504181112 0 181 1.0 1.0 0.00 0.00 0.00 1010.8
20260504180611 0 97 3.0 3.0 0.00 0.00 0.00 1010.8
20260504180109 0 302 4.0 5.0 0.00 0.00 0.00 1010.8
20260504175606 0 284 2.0 2.0 0.00 0.00 0.00 1011.0
20260504175103 0 237 1.0 2.0 0.00 0.00 0.00 1010.9
20260504174601 0 282 1.0 2.0 0.00 0.00 0.00 1011.0
20260504174057 0 236 1.0 1.0 0.00 0.00 0.00 1010.9
20260504173554 0 190 0.0 0.0 0.00 0.00 0.00 1010.9
20260504173052 0 208 3.0 3.0 0.00 0.00 0.00 1010.9
20260504172547 0 178 3.0 3.0 0.00 0.00 0.00 1011.3
20260504172044 0 243 1.0 1.0 0.00 0.00 0.00 1011.1
20260504171541 0 229 0.0 0.0 0.00 0.00 0.00 1011.3
20260504171038 0 232 3.0 3.0 0.00 0.00 0.00 1011.3
20260504170534 0 303 6.0 9.0 0.00 0.00 0.00 1011.5
20260504150918 0 87 0.0 1.0 0.00 0.00 0.00 1012.7
20260504150415 0 188 2.0 2.0 0.00 0.00 0.00 1012.6
20260504140841 0 179 3.0 3.0 0.00 0.00 0.00 1012.9
20260504140337 0 341 1.0 2.0 0.00 0.00 0.00 1013.0
20260504130806 0 141 3.0 6.0 0.00 0.00 0.00 1013.5
20260504130302 0 237 2.0 3.0 0.00 0.00 0.00 1013.2
20260504120225 0 216 0.0 1.0 0.00 0.00 0.00 1013.7
20260504110653 0 226 0.0 0.0 0.00 0.00 0.00 1014.0
20260504110149 0 188 0.0 0.0 0.00 0.00 0.00 1014.1
20260504100615 0 208 0.0 0.0 0.00 0.00 0.00 1014.0
20260504100113 0 212 0.0 0.0 0.00 0.00 0.00 1013.9
20260504081506 0 222 0.0 0.0 0.00 0.00 0.00 1014.1
20260504081001 0 224 0.0 0.0 0.00 0.00 0.00 1014.1
20260504080458 0 227 0.0 0.0 0.00 0.00 0.00 1014.2
20260504050311 0 227 0.0 0.0 0.00 0.00 0.00 1014.2
20260504045808 0 225 0.0 0.0 0.00 0.00 0.00 1014.3
20260504045304 0 226 0.0 0.0 0.00 0.00 0.00 1014.1
20260504044800 0 224 0.0 0.0 0.00 0.00 0.00 1014.4
20260504044258 0 213 0.0 0.0 0.00 0.00 0.00 1014.3
20260504043755 0 217 0.0 0.0 0.00 0.00 0.00 1014.5
20260504043251 0 221 0.0 0.0 0.00 0.00 0.00 1014.2
20260504042749 0 215 0.0 0.0 0.00 0.00 0.00 1014.3
20260504042245 0 230 0.0 0.0 0.00 0.00 0.00 1014.1
20260504041742 0 225 0.0 0.0 0.00 0.00 0.00 1013.9
20260504041238 0 219 0.0 0.0 0.00 0.00 0.00 1014.1
20260504040734 0 226 0.0 0.0 0.00 0.00 0.00 1013.9
20260504040232 0 222 0.0 0.0 0.00 0.00 0.00 1013.9
20260504035727 0 220 0.0 0.0 0.00 0.00 0.00 1014.0
20260504035225 0 219 0.0 0.0 0.00 0.00 0.00 1014.0
20260504034722 0 216 0.0 0.0 0.00 0.00 0.00 1014.0
20260504034219 0 231 0.0 0.0 0.00 0.00 0.00 1013.8
20260504033717 0 226 0.0 0.0 0.00 0.00 0.00 1013.8
20260504033214 0 216 0.0 0.0 0.00 0.00 0.00 1013.8
20260504032711 0 214 0.0 0.0 0.00 0.00 0.00 1013.9
20260504032208 0 208 0.0 0.0 0.00 0.00 0.00 1013.9
20260504031705 0 218 0.0 0.0 0.00 0.00 0.00 1013.7
20260504031202 0 228 0.0 0.0 0.00 0.00 0.00 1013.6
20260504030658 0 225 0.0 0.0 0.00 0.00 0.00 1013.7
20260504030155 0 220 0.0 0.0 0.00 0.00 0.00 1013.5
20260504025652 0 210 0.0 0.0 0.00 0.00 0.00 1013.6
20260504025148 0 216 0.0 0.0 0.00 0.00 0.00 1013.8
20260504024646 0 209 0.0 0.0 0.00 0.00 0.00 1013.6
20260504024142 0 217 0.0 0.0 0.00 0.00 0.00 1013.6
20260504023639 0 224 0.0 0.0 0.00 0.00 0.00 1013.7
20260504023135 0 224 0.0 0.0 0.00 0.00 0.00 1013.6
20260504022631 0 224 0.0 0.0 0.00 0.00 0.00 1013.8
20260504022127 0 227 0.0 0.0 0.00 0.00 0.00 1013.6
20260504021626 0 207 0.0 0.0 0.00 0.00 0.00 1013.6
20260504021122 0 216 0.0 0.0 0.00 0.00 0.00 1013.7
20260504020619 0 228 0.0 0.0 0.00 0.00 0.00 1013.7
20260504020115 0 228 0.0 0.0 0.00 0.00 0.00 1013.6
20260504015612 0 228 0.0 0.0 0.00 0.00 0.00 1013.5
20260504015108 0 214 0.0 0.0 0.00 0.00 0.00 1013.6
20260504014604 0 204 1.0 1.0 0.00 0.00 0.00 1013.5
20260504014101 0 218 0.0 0.0 0.00 0.00 0.00 1013.3
20260504013559 0 223 0.0 0.0 0.00 0.00 0.00 1013.3
20260504013055 0 235 0.0 0.0 0.00 0.00 0.00 1013.4
20260504012553 0 226 0.0 0.0 0.00 0.00 0.00 1013.4
20260504012051 0 223 0.0 0.0 0.00 0.00 0.00 1013.2
20260504011547 0 214 0.0 0.0 0.00 0.00 0.00 1013.3
20260504011043 0 217 0.0 0.0 0.00 0.00 0.00 1013.4
20260504010539 0 212 0.0 0.0 0.00 0.00 0.00 1013.3